Miscellaneous Local Product
Issued by NWS North Platte, NE

Home | Current Version | Previous Version | Text Only | Print | Product List | Glossary On
Versions: 1 2 3 4 5 6 7 8 9 10 11 12 13 14 15 16 17 18 19 20 21 22 23 24 25 26 27 28 29 30 31 32 33 34 35 36 37 38 39 40 41 42 43 44 45 46 47 48 49 50
000
AXUS43 KLBF 181810
MISLBF


WESTERN AND NORTH CENTRAL NEBRASKA HOURLY WEATHER ROUNDUP
NATIONAL WEATHER SERVICE NORTH PLATTE NE
1200 PM CST THU DEC 18 2014

***STATIONS NOT REPORTING VARIABLES SUCH AS SKY/WEATHER OR
PRESSURE ARE PROVIDED BY THE NEBRASKA DEPARTMENT OF
ROADS...RAWS...AND APRS NETWORKS...AND ARE NOT UNDER
NATIONAL WEATHER SERVICE QUALITY CONTROL***

...OBSERVATIONS IN AND NEAR THE EASTERN PANHANDLE OF NEBRASKA...

CITY           SKY/WX    TMP DP  RH WIND       PRES   REMARKS
PINE RIDGE     SUNNY     32  22  66 W10       30.03F WCI  24
CHADRON        SUNNY     22  20  92 SW3       30.05F
ALLIANCE       SUNNY     22  18  85 W7        30.04S WCI  13
SIDNEY         SUNNY     31  22  69 W9        30.05S WCI  23
WHITECLAY        N/A     33  19  55 W7          N/A  WCI  27
CRESCENT LAKE    N/A     23  21  91 W6          N/A  WCI  16
LISCO            N/A     19  13  77 SW7         N/A  WCI  10
BIG SPRINGS      N/A     23  21  91 W6          N/A  WCI  16
$$

...OBSERVATIONS IN NORTH CENTRAL NEBRASKA...

CITY           SKY/WX    TMP DP  RH WIND       PRES   REMARKS
VALENTINE      CLOUDY    26  22  84 SW8       30.08F FOG     WCI  18
THEDFORD       CLOUDY    28  25  90 SW6       30.08F WCI  21
AINSWORTH      CLOUDY    26  24  90 SW5       30.09F WCI  21
O`NEILL        CLOUDY    26  25  95 S5        30.15S FOG     WCI  21
ORD            CLOUDY    25  23  92 S9        30.14F FOG     WCI  15
BROKEN BOW     CLOUDY    27  25  92 SW8       30.11F WCI  19
BROWNLEE         N/A     24  22  93 CALM        N/A
SPRINGVIEW       N/A     27  23  83 SW7         N/A  WCI  20
BREWSTER         N/A     30  27  90 SW8         N/A  WCI  22
ROSE             N/A     29  29 100 MISG        N/A
SARGENT          N/A     26  24  92 CALM        N/A
COMSTOCK         N/A     32  28  86 S5          N/A  WCI  27
CHAMBERS         N/A     28  22  78 CALM        N/A
$$

...OBSERVATIONS IN SOUTHWEST NEBRASKA AND FAR NORTHEAST COLORADO...

CITY           SKY/WX    TMP DP  RH WIND       PRES   REMARKS
WRAY           FAIR      21  20  96 CALM      30.09F
IMPERIAL       CLOUDY    25  22  88 W6        30.10F FOG     WCI  18
OGALLALA       CLOUDY    21  20  96 W3        30.09F FOG
NORTH PLATTE   CLOUDY    27  24  89 SW7       30.11F FOG     WCI  19
MCCOOK         CLOUDY    27  24  89 SW7       30.14F WCI  19
LEXINGTON      CLOUDY    28  24  87 SW6       30.14F WCI  21
PAXTON           N/A     23  22  94 W3          N/A
BRADY            N/A     26  24  90 CALM        N/A
GOTHENBURG       N/A     28  24  86 SW3         N/A
CALLAWAY         N/A     25  24  96 SE3         N/A
$$

...NORTH PLATTE AREA...

CITY           SKY/WX    TMP DP  RH WIND       PRES   REMARKS
AIRPORT        CLOUDY    27  24  89 SW7       30.11F FOG     WCI  19
$$

...SOME WEATHER OBSERVATIONS FROM AROUND THE REGION...

CITY           SKY/WX    TMP DP  RH WIND       PRES   REMARKS
DENVER         PTSUNNY   37  28  70 S3        30.04F
LARAMIE        SUNNY     30  17  58 SW15      30.02S WCI  19
CHEYENNE       SUNNY     39  14  36 W18       30.02F WCI  30
SCOTTSBLUFF    MOSUNNY   13   9  84 NW6       30.07F FOG     WCI   4
RAPID CITY     SUNNY     29  24  82 VRB3      30.00F
PIERRE         CLOUDY    25  22  88 SE6       30.10F WCI  18
WINNER         CLOUDY    28  23  81 S7        30.10F WCI  21
SIOUX FALLS    CLOUDY    24  19  81 S7        30.20F WCI  16
OMAHA          LGT SNOW  29  25  85 S7        30.25F WCI  22
GRAND ISLAND   CLOUDY    27  23  85 S6        30.19F WCI  20
KANSAS CITY    FLURRIES  31  28  89 E7        30.22F WCI  24
WICHITA        CLOUDY    33  30  88 N5        30.19F FOG     WCI  29
HAYS           CLOUDY    30  19  64 CALM      30.18F
LIBERAL        CLOUDY    34  30  86 N7        30.16S WCI  28
GOODLAND       MOSUNNY   28  27  96 SW8       30.09F WCI  20
$$



USA.gov is the U.S. government's official web portal to all federal, state and local government web resources and services.